Location: Limerick
(52.6650°N, 8.6230°W)
Time: 19:19:14
(UTC+01:00)

ISS - Pass Details

Date: 24 May 2017
Orbit: 402 x 408 km, 51.6° (Epoch: 29 May)

Event Time Altitude Azimuth Distance (km) Brightness Sun altitude
Rises 00:52:47 0° 250° (WSW) 2,330 -0.1 -16.1°
Reaches altitude 10° 00:54:53 10° 247° (WSW) 1,469 -1.1 -16.1°
Maximum altitude 00:58:08 60° 167° (SSE) 470 -3.9 -16.2°
Drops below altitude 10° 01:01:23 10° 86° (E) 1,469 -1.0 -16.3°
Sets 01:03:29 0° 83° (E) 2,329 0.0 -16.3°
